Location: Newark
(15.4608°S, 41.1635°W)
Time: 08:43:40
(UTC+00:00)

Transit 4A - Pass Details

Date: 08 March 2021
Orbit: 869 x 975 km, 66.8° (Epoch: 22 April)

Event Time Altitude Azimuth Distance (km) Brightness Sun altitude
Rises 09:46:38 0° 199° (SSW) 3,636 10.8 13.6°
Reaches altitude 10° 09:49:10 10° 197° (SSW) 2,698 10.2 14.2°
Maximum altitude 09:55:30 76° 111° (ESE) 999 8.6 15.7°
Drops below altitude 10° 10:01:51 10° 25° (NNE) 2,710 10.7 17.2°
Sets 10:04:25 0° 24° (NNE) 3,653 11.3 17.9°
